Location: El Águila
(10.4167°N, 66.7167°W)
Time: 04:38:22
(UTC+00:00)

Cosmos 2263 Rocket - Pass Details

Date: 02 October 2022
Orbit: 822 x 849 km, 71.0° (Epoch: 04 December)

Event Time Altitude Azimuth Distance (km) Brightness Sun altitude
Rises 23:07:48 0° 11° (NNE) 3,402 5.2 -13.4°
Reaches altitude 10° 23:11:11 10° 32° (NNE) 2,467 4.3 -14.2°
Enters shadow 23:13:32 16° 56° (NE) 2,080 3.7 -14.8°
